[[{"header":{"parameterUnit":"m.s-1","parameterCategory":1,"la1":30.2991,"la2":30.254,"lo1":-89.0895,"lo2":-89.0444,"dy":0.0017,"dx":0.0017,"nx":28,"ny":28,"refTime":"2025-03-03T09:00:00:Z","depth":0,"parameterNumber":2,"parameterNumberName":"U-component_of_WINDS"},"data":[0,0,0,0,0,0,0,0,0,0,0,0,0,0,0,0,0,0,0,0,0,0,0,0,0,0,0,0,0,0,0,0,0,0,0,0,0,0,0,0,0,0,0,0,0,0,0,0,0,0,0,0,0,0,0,0,0,0,-6.4636,-6.4637,0,-6.471,-6.4711,-6.4712,-6.4641,-6.4638,-6.4636,-6.4633,-6.4705,-6.471,-6.4714,0,0,0,0,0,0,0,0,0,0,0,0,0,-6.4432,-6.4436,-6.4636,-6.4637,-6.4638,-6.471,-6.4711,-6.4712,-6.4642,-6.4638,-6.4635,-6.4632,-6.4704,-6.4709,-6.4715,0,0,0,0,0,0,0,0,0,0,0,0,0,-6.4515,-6.4438,-6.4636,-6.4612,-6.461,-6.471,-6.4711,-6.4713,-6.4642,-6.4638,-6.4634,-6.463,-6.4702,-6.4709,-6.4716,-6.4842,0,0,-6.4736,-6.4739,0,0,0,0,0,0,0,0,-6.451,-6.4522,-6.4614,-6.4614,-6.4612,-6.4662,-6.4666,-6.4756,-6.4644,-6.463,-6.4633,-6.4628,-6.4694,-6.4702,-6.4725,-6.4845,-6.4848,-6.4737,-6.4741,-6.4744,-6.4746,0,0,0,0,0,0,0,-6.4505,-6.4519,-6.4665,-6.4616,-6.4615,-6.4597,-6.4604,-6.4683,-6.4685,-6.4631,-6.4626,-6.4636,-6.4693,-6.4718,-6.4726,-6.485,-6.4737,-6.4743,-6.4747,-6.475,-6.5078,-6.5082,0,0,0,0,0,0,-6.4502,-6.4515,-6.4663,-6.4668,-6.455,-6.4604,-6.4612,-6.465,-6.4684,-6.4685,-6.464,-6.4632,-6.4709,-6.4718,-6.4728,-6.4877,-6.4744,-6.475,-6.4754,-6.5073,-6.5079,-6.5084,0,0,0,0,0,0,-6.4498,-6.4516,-6.466,-6.459,-6.4607,-6.4612,-6.4656,-6.4654,-6.4679,-6.469,-6.469,-6.4665,-6.4706,-6.4718,-6.4814,-6.4878,-6.4753,-6.476,-6.5068,-6.5075,-6.5081,-6.5176,0,0,0,0,0,0,-6.4492,-6.4515,-6.4563,-6.4592,-6.4611,-6.4746,-6.466,-6.4659,-6.4692,-6.4683,-6.4714,-6.4715,-6.4703,-6.4805,-6.4821,-6.4885,-6.4765,-6.5062,-6.5071,-6.5079,-6.5167,-6.5186,-6.5201,0,0,0,0,0,-6.4485,-6.4586,-6.4566,-6.4584,-6.4671,-6.475,-6.476,-6.4746,-6.4697,-6.4745,-6.4753,-6.4714,-6.487,-6.4815,-6.4833,-6.49,-6.5058,-6.5068,-6.5079,-6.516,-6.5182,-6.5201,0,0,0,0,0,0,-6.4563,-6.4589,-6.4567,-6.468,-6.4714,-6.4737,-6.4797,-6.477,-6.4816,-6.4806,-6.4786,-6.4793,-6.4894,-6.4908,-6.4846,-6.5025,-6.4956,-6.497,-6.5011,-6.5033,-6.5049,-6.5042,-6.4771,0,0,0,0,0,-6.4594,-6.4656,-6.4675,-6.4773,-6.4791,-6.4792,-6.4826,-6.4812,-6.4845,-6.4858,-6.4872,-6.4905,-6.4961,-6.4998,-6.5051,-6.5171,-6.5176,-6.5226,-6.5243,-6.5257,-6.5268,-6.5332,-6.5354,-6.5118,-6.5118,-6.5118,0,0,-6.4656,-6.4679,-6.4718,-6.4789,-6.4813,-6.4877,-6.4804,-6.4874,-6.4921,-6.4868,-6.4959,-6.4972,-6.5007,-6.5115,-6.5164,-6.5129,-6.5336,-6.527,-6.5281,-6.5285,-6.5345,-6.5367,-6.5387,-6.5125,-6.5124,-6.5123,0,0,-6.4802,-6.4827,-6.4911,-6.4937,-6.4976,-6.4976,-6.4997,-6.5026,-6.5032,-6.5124,-6.5086,-6.5142,-6.5239,-6.5266,-6.5292,-6.5453,-6.5419,-6.5471,-6.5558,-6.562,-6.5638,-6.5655,-6.5709,-6.573,-6.5484,-6.5484,-6.5484,0,-6.4875,-6.497,-6.4957,-6.5031,-6.5062,-6.5021,-6.5105,-6.5131,-6.5184,-6.5207,-6.5169,-6.5291,-6.5312,-6.5425,-6.5465,-6.5489,-6.551,-6.5465,-6.5637,-6.5653,-6.5668,-6.572,-6.5741,-6.549,-6.5489,-6.5488,-6.5488,0,-6.5057,-6.5124,-6.5187,-6.5241,-6.528,-6.5359,-6.5357,-6.5399,-6.5384,-6.5388,-6.5482,-6.5507,-6.5563,-6.559,-6.5575,-6.5702,-6.5679,-6.564,-6.5569,-6.5697,-6.5745,-6.5765,-6.5498,-6.5496,-6.5494,-6.5493,0,0,-6.5248,-6.5297,-6.532,-6.5344,-6.5385,-6.5436,-6.5514,-6.5571,-6.5606,-6.5646,-6.5709,-6.5794,-6.5759,-6.5789,-6.5777,-6.5832,-6.5956,-6.5786,-6.5786,-6.5813,-6.6095,-6.6121,-6.6144,-6.5936,-6.594,-6.5943,-6.6091,0,-6.5393,-6.5528,-6.552,-6.5646,-6.5707,-6.5671,-6.5738,-6.577,-6.5778,-6.5831,-6.5839,-6.5899,-6.5849,-6.5866,-6.592,-6.5929,-6.6011,-6.5919,-6.5991,-6.5994,-6.5979,-6.617,-6.6198,-6.6336,-6.611,-6.6113,-6.6116,0,-6.5579,-6.5627,-6.5759,-6.5792,-6.5818,-6.5878,-6.593,-6.5982,-6.6019,-6.602,-6.6056,-6.6036,-6.6114,-6.6046,-6.6152,-6.609,-6.612,-6.6129,-6.6134,-6.6136,-6.6059,-6.6174,-6.638,-6.6399,-6.6146,-6.6143,-6.6141,0,-6.5702,-6.5799,-6.5891,-6.5913,-6.5955,-6.5998,-6.6018,-6.605,-6.6085,-6.6132,-6.6154,-6.6209,-6.6237,-6.628,-6.6275,-6.6226,-6.6382,-6.6314,-6.6384,-6.6384,-6.6413,-6.6411,-6.6624,-6.6441,-6.6441,-6.644,-6.644,0,-6.5862,-6.5943,-6.5946,-6.6002,-6.6093,-6.6084,-6.6174,-6.6189,-6.6219,-6.6276,-6.625,-6.6304,-6.6297,-6.6352,-6.6349,-6.6436,-6.645,-6.6452,-6.6449,-6.6452,-6.6451,-6.6468,-6.6456,-6.6446,-6.6444,-6.6443,-6.6442,0,-6.6011,-6.6017,-6.6114,-6.6147,-6.6158,-6.6223,-6.625,-6.6303,-6.6311,-6.6384,-6.6401,-6.6412,-6.6475,-6.6476,-6.6549,-6.6547,-6.6652,-6.6641,-6.664,-6.6636,-6.6704,-6.6696,-6.6931,-6.696,-6.6763,-6.6765,-6.6766,0,-6.611,-6.6172,-6.6213,-6.6251,-6.6273,-6.6334,-6.637,-6.6365,-6.6404,-6.6452,-6.6499,-6.6561,-6.6609,-6.6712,-6.6726,-6.6781,-6.6768,-6.6847,-6.6776,-6.6777,-6.6765,-6.676,-6.6765,-6.6859,-6.6861,-6.6863,-6.6865,0,-6.6285,-6.6286,-6.6339,-6.6396,-6.644,-6.6484,-6.6524,-6.6556,-6.6556,-6.6601,-6.6667,-6.6705,-6.678,-6.684,-6.6895,-6.6914,-6.6889,-6.6888,-6.6906,-6.6907,-6.6902,-6.6902,-6.6673,-6.6881,-6.688,-6.6878,-6.6877,-6.6877,-6.641,-6.6463,-6.65,-6.6562,-6.6593,-6.6632,-6.6683,-6.6698,-6.6753,-6.6814,-6.6809,-6.6881,-6.6917,-6.6988,-6.7013,-6.7068,-6.7041,-6.7068,-6.7074,-6.708,-6.7086,-6.6898,-6.7079,-6.7078,-6.7078,-6.7078,-6.7077,0,-6.658,-6.6603,-6.666,-6.6718,-6.6767,-6.6743,-6.6787,-6.6829,-6.6893,-6.693,-6.6979,-6.7055,-6.7114,-6.7135,-6.7193,-6.7233,-6.7223,-6.7248,-6.7243,-6.7247,-6.7109,-6.7085,-6.7255,-6.7255,-6.7255,-6.7255,-6.7255,-6.7255,-6.6673,-6.6762,-6.6768,-6.6872,-6.6895,-6.6966,-6.6993,-6.7029,-6.7058,-6.7144,-6.7194,-6.7208,-6.7239,-6.7299,-6.7353,-6.7357,-6.7378,-6.7407,-6.7406,-6.7275,-6.7257,-6.724,-6.7217,-6.7413,-6.7413,-6.7539,-6.7541,-6.7542]},{"header":{"parameterUnit":"m.s-1","parameterCategory":1,"la1":30.2991,"la2":30.254,"lo1":-89.0895,"lo2":-89.0444,"dy":0.0017,"dx":0.0017,"nx":28,"ny":28,"refTime":"2025-03-03T09:00:00:Z","depth":0,"parameterNumber":3,"parameterNumberName":"V-component_of_WINDS"},"data":[0,0,0,0,0,0,0,0,0,0,0,0,0,0,0,0,0,0,0,0,0,0,0,0,0,0,0,0,0,0,0,0,0,0,0,0,0,0,0,0,0,0,0,0,0,0,0,0,0,0,0,0,0,0,0,0,0,0,2.3709,2.3711,0,2.3837,2.3839,2.384,2.3886,2.3886,2.3885,2.3885,2.4012,2.4016,2.402,0,0,0,0,0,0,0,0,0,0,0,0,0,2.3503,2.3507,2.3709,2.3711,2.3712,2.3837,2.3839,2.3841,2.3886,2.3886,2.3885,2.3885,2.4011,2.4016,2.402,0,0,0,0,0,0,0,0,0,0,0,0,0,2.3608,2.3508,2.3709,2.375,2.3755,2.3837,2.3839,2.3841,2.3886,2.3886,2.3885,2.3884,2.401,2.4015,2.4021,2.407,0,0,2.4038,2.4041,0,0,0,0,0,0,0,0,2.3602,2.3615,2.3742,2.3747,2.3753,2.3845,2.3813,2.3918,2.3886,2.3836,2.3885,2.3884,2.3957,2.3967,2.3993,2.4076,2.4081,2.4039,2.4042,2.4045,2.4046,0,0,0,0,0,0,0,2.3595,2.361,2.376,2.3744,2.3751,2.3762,2.3776,2.3833,2.3899,2.3841,2.3844,2.3859,2.396,2.3987,2.3996,2.4083,2.4039,2.4044,2.4047,2.405,2.4217,2.4218,0,0,0,0,0,0,2.3581,2.3604,2.3756,2.3764,2.3674,2.3766,2.3782,2.3816,2.3898,2.391,2.386,2.3861,2.3977,2.3989,2.4,2.4066,2.4045,2.405,2.4053,2.4216,2.4217,2.4218,0,0,0,0,0,0,2.3576,2.3594,2.375,2.3685,2.3706,2.3771,2.3808,2.3819,2.3846,2.3913,2.3924,2.3875,2.3977,2.3992,2.4053,2.4071,2.4053,2.4058,2.4215,2.4216,2.4218,2.4195,0,0,0,0,0,0,2.357,2.3592,2.3611,2.3685,2.3709,2.3801,2.381,2.3822,2.3856,2.3859,2.393,2.3941,2.3978,2.4045,2.4059,2.4078,2.4062,2.4213,2.4215,2.4217,2.4194,2.4195,2.4196,0,0,0,0,0,2.3562,2.3597,2.3612,2.363,2.3734,2.3802,2.3816,2.3858,2.3858,2.3878,2.3921,2.3939,2.4067,2.405,2.4067,2.4088,2.4213,2.4215,2.4217,2.4194,2.4195,2.4196,0,0,0,0,0,0,2.3521,2.3608,2.3624,2.3684,2.3736,2.381,2.3836,2.3857,2.3909,2.3909,2.3959,2.3974,2.4032,2.4066,2.4047,2.4142,2.4141,2.4146,2.4117,2.4119,2.412,2.411,2.4067,0,0,0,0,0,2.352,2.3568,2.3641,2.3687,2.3712,2.377,2.3801,2.3829,2.3884,2.3905,2.3953,2.4005,2.4057,2.409,2.4141,2.42,2.4217,2.4223,2.4224,2.4224,2.4228,2.4265,2.4269,2.4226,2.4226,2.4226,0,0,2.3515,2.3569,2.3596,2.368,2.3723,2.3773,2.3787,2.3838,2.3875,2.3913,2.3974,2.4011,2.4072,2.4133,2.4162,2.4163,2.4245,2.4227,2.4227,2.4231,2.4268,2.4272,2.4275,2.4227,2.4227,2.4227,0,0,2.3534,2.3579,2.3624,2.3668,2.3734,2.3773,2.3784,2.3856,2.3883,2.3945,2.3976,2.4021,2.4108,2.4152,2.4185,2.4226,2.4245,2.4241,2.4245,2.4281,2.4284,2.4287,2.4303,2.4308,2.4245,2.4245,2.4245,0,2.352,2.3597,2.3643,2.3694,2.3731,2.377,2.3817,2.3857,2.3936,2.3961,2.3961,2.4076,2.4119,2.4192,2.4203,2.4228,2.4243,2.4232,2.428,2.4284,2.4287,2.4303,2.4309,2.4244,2.4244,2.4244,2.4244,0,2.3578,2.3631,2.3659,2.3737,2.3777,2.3825,2.388,2.3915,2.3942,2.3981,2.4046,2.41,2.4165,2.4185,2.4209,2.4262,2.4261,2.427,2.427,2.429,2.4306,2.4312,2.4243,2.4243,2.4243,2.4244,0,0,2.3571,2.3678,2.3688,2.3725,2.3803,2.3845,2.3896,2.3962,2.3992,2.4046,2.409,2.4166,2.4177,2.4215,2.4245,2.4276,2.4307,2.4282,2.4284,2.4286,2.4372,2.4365,2.4371,2.4321,2.4322,2.4323,2.4367,0,2.3601,2.3695,2.374,2.3814,2.3865,2.3905,2.395,2.4003,2.4042,2.409,2.4132,2.4186,2.4195,2.4219,2.4251,2.4296,2.4325,2.4294,2.4364,2.4365,2.4347,2.4379,2.4371,2.4409,2.4373,2.4374,2.4375,0,2.3647,2.3704,2.3783,2.386,2.3883,2.3922,2.3988,2.4034,2.4095,2.4122,2.4167,2.4197,2.4254,2.425,2.4329,2.4307,2.4339,2.4366,2.4368,2.4376,2.4371,2.4388,2.4422,2.4428,2.4385,2.4384,2.4383,0,2.3636,2.3732,2.3794,2.3824,2.3914,2.3941,2.398,2.4041,2.4079,2.4136,2.4162,2.4224,2.4258,2.4306,2.4353,2.4346,2.4428,2.4428,2.4452,2.4451,2.4467,2.4465,2.4506,2.4486,2.4486,2.4486,2.4486,0,2.3664,2.3711,2.3791,2.3828,2.3883,2.3936,2.399,2.4031,2.4086,2.4133,2.4171,2.4214,2.4273,2.4324,2.4361,2.4423,2.4437,2.446,2.447,2.4457,2.4455,2.4478,2.4477,2.4487,2.4487,2.4487,2.4487,0,2.366,2.3715,2.3785,2.3866,2.3887,2.3924,2.3994,2.4032,2.4075,2.4134,2.415,2.4216,2.4278,2.4331,2.4411,2.4437,2.4501,2.4511,2.448,2.4485,2.4507,2.4504,2.4565,2.4577,2.4548,2.4548,2.4548,0,2.3675,2.3713,2.3799,2.3834,2.3873,2.3928,2.3968,2.4023,2.4063,2.4139,2.4169,2.4234,2.429,2.4387,2.4442,2.4505,2.4518,2.4535,2.4527,2.4515,2.452,2.4517,2.4522,2.4535,2.4535,2.4535,2.4535,0,2.3695,2.3722,2.3778,2.3846,2.3893,2.3948,2.4004,2.403,2.4095,2.4138,2.4204,2.4247,2.4332,2.4397,2.4467,2.4507,2.4532,2.4538,2.4547,2.4535,2.4516,2.4528,2.4482,2.4536,2.4536,2.4536,2.4536,2.4536,2.3702,2.3739,2.3807,2.387,2.3918,2.3971,2.4012,2.4061,2.4117,2.4192,2.4221,2.4289,2.4353,2.445,2.449,2.4544,2.4547,2.456,2.4563,2.4565,2.4565,2.4507,2.4557,2.4557,2.4557,2.4557,2.4557,0,2.3726,2.3773,2.383,2.3909,2.3959,2.3981,2.4046,2.4086,2.4145,2.4204,2.4259,2.4336,2.44,2.4462,2.453,2.4561,2.4575,2.4577,2.4575,2.4584,2.4557,2.4543,2.4565,2.4565,2.4565,2.4565,2.4565,2.4565,2.3744,2.3809,2.3844,2.3934,2.3981,2.4049,2.4084,2.4133,2.4181,2.4266,2.432,2.4361,2.4422,2.4495,2.4555,2.4572,2.4596,2.4595,2.4614,2.4587,2.4586,2.4584,2.4572,2.4599,2.4599,2.4638,2.4638,2.4638]}]]